Estación de Peumo Norte
Ultimos registro cada 15 minutos 71
| N° | Estación | Fecha / Hora | Temperatura | Humedad | Lluvia | Velocidad | Dirección | Radiación | Presion |
| 71 | Peumo Norte | 09-05-2026 17:30 | 18,5 | 57,7 | 0 | 0 | 145 | 14,4 | 999,4 |
| 70 | Peumo Norte | 09-05-2026 17:15 | 20,6 | 56,4 | 0 | 0 | 167 | 33,1 | 999,5 |
| 69 | Peumo Norte | 09-05-2026 17:00 | 20,9 | 54,5 | 0 | 0 | 187 | 73,1 | 999,4 |
| 68 | Peumo Norte | 09-05-2026 16:45 | 20,9 | 53,2 | 0 | 0,5 | 181 | 116,9 | 999,1 |
| 67 | Peumo Norte | 09-05-2026 16:30 | 21,1 | 52,4 | 0 | 0,5 | 167 | 149,4 | 999,3 |
| 66 | Peumo Norte | 09-05-2026 16:15 | 21 | 51,2 | 0 | 0,5 | 168 | 183,1 | 999,4 |
| 65 | Peumo Norte | 09-05-2026 16:00 | 21,7 | 48,1 | 0 | 0,5 | 180 | 216,9 | 999,4 |
| 64 | Peumo Norte | 09-05-2026 15:45 | 21,6 | 49,6 | 0 | 0,5 | 164 | 248,1 | 999,5 |
| 63 | Peumo Norte | 09-05-2026 15:30 | 20,8 | 52,4 | 0 | 0,5 | 164 | 276,9 | 999,8 |
| 62 | Peumo Norte | 09-05-2026 15:15 | 21,1 | 52,4 | 0 | 0,5 | 149 | 304,4 | 999,9 |
| 61 | Peumo Norte | 09-05-2026 15:00 | 21,3 | 50,4 | 0 | 0 | 131 | 329,4 | 999,9 |
| 60 | Peumo Norte | 09-05-2026 14:45 | 20,2 | 52,9 | 0 | 0 | 101 | 353,1 | 1000 |
| 59 | Peumo Norte | 09-05-2026 14:30 | 20,5 | 51,7 | 0 | 0 | 156 | 378,1 | 1000,1 |
| 58 | Peumo Norte | 09-05-2026 14:15 | 19,7 | 55,1 | 0 | 0 | 119 | 395,6 | 1000,1 |
| 57 | Peumo Norte | 09-05-2026 14:00 | 19,4 | 57,2 | 0 | 0,5 | 142 | 413,1 | 1000,1 |
| 56 | Peumo Norte | 09-05-2026 13:45 | 19,2 | 58,7 | 0 | 0 | 156 | 431,9 | 1000,4 |
| 55 | Peumo Norte | 09-05-2026 13:30 | 18,4 | 58,7 | 0 | 0,5 | 160 | 441,9 | 1000,6 |
| 54 | Peumo Norte | 09-05-2026 13:15 | 17,7 | 60,6 | 0 | 0,5 | 180 | 453,1 | 1000,9 |
| 53 | Peumo Norte | 09-05-2026 13:00 | 17,5 | 62,8 | 0 | 0,5 | 178 | 460,6 | 1001,1 |
| 52 | Peumo Norte | 09-05-2026 12:45 | 17,4 | 64,2 | 0 | 0,5 | 170 | 468,1 | 1001,1 |
| 51 | Peumo Norte | 09-05-2026 12:30 | 16,4 | 67,7 | 0 | 0,5 | 175 | 465,6 | 1001,6 |
| 50 | Peumo Norte | 09-05-2026 12:15 | 16,5 | 67,8 | 0 | 0,5 | 181 | 468,1 | 1001,6 |
| 49 | Peumo Norte | 09-05-2026 12:00 | 15,7 | 69,2 | 0 | 1 | 185 | 466,9 | 1001,6 |
| 48 | Peumo Norte | 09-05-2026 11:45 | 15,4 | 70 | 0 | 0,5 | 178 | 461,9 | 1001,7 |
| 47 | Peumo Norte | 09-05-2026 11:30 | 14,8 | 72,1 | 0 | 1 | 167 | 451,9 | 1001,9 |
| 46 | Peumo Norte | 09-05-2026 11:15 | 14,5 | 74,2 | 0 | 1 | 177 | 440,6 | 1001,9 |
| 45 | Peumo Norte | 09-05-2026 11:00 | 14,1 | 76 | 0 | 1,5 | 178 | 424,4 | 1002 |
| 44 | Peumo Norte | 09-05-2026 10:45 | 13,7 | 77,6 | 0 | 1 | 181 | 409,4 | 1002 |
| 43 | Peumo Norte | 09-05-2026 10:30 | 13,1 | 79,2 | 0 | 1 | 170 | 389,4 | 1002,2 |
| 42 | Peumo Norte | 09-05-2026 10:15 | 13 | 84,3 | 0 | 0,5 | 126 | 366,9 | 1002,4 |
| 41 | Peumo Norte | 09-05-2026 10:00 | 12,7 | 89,5 | 0 | 1 | 168 | 343,1 | 1002,5 |
| 40 | Peumo Norte | 09-05-2026 09:45 | 11,9 | 93,4 | 0 | 0,5 | 171 | 310,6 | 1002,5 |
| 39 | Peumo Norte | 09-05-2026 09:30 | 11,8 | 94,7 | 0 | 0 | 102 | 270,6 | 1002,7 |
| 38 | Peumo Norte | 09-05-2026 09:15 | 11,1 | 96,4 | 0 | 0 | 150 | 235,6 | 1002,7 |
| 37 | Peumo Norte | 09-05-2026 09:00 | 9,4 | 96,8 | 0 | 0 | 93 | 201,9 | 1002,9 |
| 36 | Peumo Norte | 09-05-2026 08:45 | 9,3 | 97,2 | 0 | 0 | 117 | 169,4 | 1003 |
| 35 | Peumo Norte | 09-05-2026 08:30 | 7,8 | 97,1 | 0 | 0 | 115 | 133,1 | 1002,8 |
| 34 | Peumo Norte | 09-05-2026 08:15 | 6,5 | 97,3 | 0 | 0 | 76 | 14,4 | 1003,2 |
| 33 | Peumo Norte | 09-05-2026 08:00 | 6,4 | 97,4 | 0 | 0 | 0 | 8,1 | 1003,3 |
| 32 | Peumo Norte | 09-05-2026 07:45 | 7,2 | 97 | 0 | 0 | 0 | 5,6 | 1003,4 |
| 31 | Peumo Norte | 09-05-2026 07:30 | 6,3 | 97 | 0 | 0 | 0 | 1,9 | 1003,4 |
| 30 | Peumo Norte | 09-05-2026 07:15 | 6,6 | 96,8 | 0 | 0 | 7 | 0,6 | 1003,4 |
| 29 | Peumo Norte | 09-05-2026 07:00 | 7,1 | 97,7 | 0 | 0 | 270 | 0,6 | 1003,2 |
| 28 | Peumo Norte | 09-05-2026 06:45 | 5,6 | 96,8 | 0 | 0 | 270 | 0,6 | 1003,2 |
| 27 | Peumo Norte | 09-05-2026 06:30 | 6,9 | 97,3 | 0 | 0 | 326 | 0,6 | 1003,4 |
| 26 | Peumo Norte | 09-05-2026 06:15 | 5,8 | 96,7 | 0 | 0 | 24 | 0,6 | 1003,2 |
| 25 | Peumo Norte | 09-05-2026 06:00 | 5,6 | 96,8 | 0 | 0 | 6 | 0,6 | 1003,1 |
| 24 | Peumo Norte | 09-05-2026 05:45 | 6,2 | 96,8 | 0 | 0 | 6 | 0,6 | 1003,2 |
| 23 | Peumo Norte | 09-05-2026 05:30 | 6,6 | 96,1 | 0 | 0 | 6 | 0,6 | 1003,2 |
| 22 | Peumo Norte | 09-05-2026 05:15 | 6,6 | 96,3 | 0 | 0 | 14 | 0,6 | 1003,2 |
| 21 | Peumo Norte | 09-05-2026 05:00 | 6,6 | 96,1 | 0 | 0 | 44 | 0,6 | 1003,2 |
| 20 | Peumo Norte | 09-05-2026 04:45 | 6,7 | 96,3 | 0 | 0 | 55 | 0,6 | 1003 |
| 19 | Peumo Norte | 09-05-2026 04:30 | 6,3 | 95,6 | 0 | 0 | 102 | 0,6 | 1003,2 |
| 18 | Peumo Norte | 09-05-2026 04:15 | 5,9 | 95,9 | 0 | 0 | 102 | 0,6 | 1003,3 |
| 17 | Peumo Norte | 09-05-2026 04:00 | 6,4 | 96,1 | 0 | 0 | 117 | 0,6 | 1003,4 |
| 16 | Peumo Norte | 09-05-2026 03:45 | 6,4 | 95,6 | 0 | 0 | 118 | 0,6 | 1003,3 |
| 15 | Peumo Norte | 09-05-2026 03:30 | 6,3 | 95,4 | 0 | 0 | 135 | 0,6 | 1003,5 |
| 14 | Peumo Norte | 09-05-2026 03:15 | 6,4 | 95,1 | 0 | 0 | 126 | 0,6 | 1003,4 |
| 13 | Peumo Norte | 09-05-2026 03:00 | 6,1 | 95,2 | 0 | 0 | 118 | 0,6 | 1003,5 |
| 12 | Peumo Norte | 09-05-2026 02:45 | 5,3 | 94,9 | 0 | 0 | 124 | 0,6 | 1003,6 |
| 11 | Peumo Norte | 09-05-2026 02:30 | 6 | 94,7 | 0 | 0 | 128 | 0,6 | 1003,8 |
| 10 | Peumo Norte | 09-05-2026 02:15 | 7,3 | 94,6 | 0 | 0 | 128 | 0,6 | 1003,8 |
| 9 | Peumo Norte | 09-05-2026 02:00 | 7,2 | 94,8 | 0 | 0 | 128 | 0,6 | 1003,9 |
| 8 | Peumo Norte | 09-05-2026 01:45 | 7,8 | 94,2 | 0 | 0 | 146 | 0,6 | 1003,8 |
| 7 | Peumo Norte | 09-05-2026 01:30 | 8,7 | 93,7 | 0 | 0 | 168 | 0,6 | 1003,7 |
| 6 | Peumo Norte | 09-05-2026 01:15 | 7,6 | 94,2 | 0 | 0 | 167 | 0,6 | 1003,7 |
| 5 | Peumo Norte | 09-05-2026 01:00 | 7 | 93,5 | 0 | 0 | 167 | 0,6 | 1003,9 |
| 4 | Peumo Norte | 09-05-2026 00:45 | 6,9 | 93,9 | 0 | 0 | 168 | 0,6 | 1003,7 |
| 3 | Peumo Norte | 09-05-2026 00:30 | 6,8 | 93 | 0 | 0 | 128 | 0,6 | 1003,6 |
| 2 | Peumo Norte | 09-05-2026 00:15 | 6,7 | 92,5 | 0 | 0 | 117 | 0,6 | 1003,8 |
| 1 | Peumo Norte | 09-05-2026 00:00 | 7 | 92,5 | 0 | 0 | 117 | 0,6 | 1004 |